sat.trackr.live / text

‹ back to catalog

STARLINK-30412

NORAD 57854 · 2023-141Q

PAYLOAD ACTIVE UNKNOWN

§ Identity

Operator
Country
US
Launch date
2023-09-12
Launch site
AFWTR
Launch vehicle
Mass (kg)
RCS (m²)

Purposes: comms

External: N2YO · Heavens-Above · Gunter

§ Orbital elements

Epoch: 2026-09-20T21:59:51.593568Z

Period
93.85 min
Inclination
53.1586°
Eccentricity
0.0000839
Mean motion
15.34372569 rev/d
Perigee alt
462.2 km
Apogee alt
463.4 km
Semi-major
6,840.9 km
B*
-5.6583e-5
RAAN
95.5056°
Arg perigee
75.5977°
Mean anomaly
284.5119°
Rev number
17,024

§ Raw data

STARLINK-304121 57854U 23141Q   26263.91656937 -.00002285  00000+0 -56583-4 0  99942 57854  53.1586  95.5056 0000839  75.5977 284.5119 15.34372569170248

JSON: /api/v1/satellites/57854 · /tle

For live sub-satellite position, see the globe view (requires WebGL).

§ Visibility from observer

Set your observer location to see the next 7 days of passes ≥ 10°. The values pass through the URL so the page stays shareable.

No JS? Fill the form by hand. The geolocation button needs JavaScript.